[[{"header":{"parameterUnit":"m.s-1","parameterCategory":1,"la1":30.2991,"la2":30.254,"lo1":-89.0895,"lo2":-89.0444,"dy":0.0017,"dx":0.0017,"nx":28,"ny":28,"refTime":"2023-08-27T09:00:00:Z","depth":0,"parameterNumber":2,"parameterNumberName":"U-component_of_WINDS"},"data":[0,0,0,0,0,0,0,0,0,0,0,0,0,0,0,0,0,0,0,0,0,0,0,0,0,0,0,0,0,0,0,0,0,0,0,0,0,0,0,0,0,0,0,0,0,0,0,0,0,0,0,0,0,0,0,0,0,0,-1.6019,-1.6018,0,-1.59,-1.5899,-1.5897,-1.5819,-1.5819,-1.5818,-1.5818,-1.5694,-1.5692,-1.5689,0,0,0,0,0,0,0,0,0,0,0,0,0,-1.6181,-1.6178,-1.602,-1.6018,-1.6017,-1.59,-1.5898,-1.5897,-1.5819,-1.5819,-1.5818,-1.5817,-1.5695,-1.5692,-1.5689,0,0,0,0,0,0,0,0,0,0,0,0,0,-1.6091,-1.6178,-1.602,-1.5964,-1.5957,-1.59,-1.5898,-1.5896,-1.5819,-1.5818,-1.5818,-1.5817,-1.5696,-1.5692,-1.5688,-1.5677,0,0,-1.5675,-1.5673,0,0,0,0,0,0,0,0,-1.6096,-1.6085,-1.5973,-1.5967,-1.596,-1.5874,-1.591,-1.5823,-1.5819,-1.5872,-1.5818,-1.5817,-1.5755,-1.5745,-1.5725,-1.5671,-1.5666,-1.5675,-1.5672,-1.567,-1.5669,0,0,0,0,0,0,0,-1.6103,-1.609,-1.5972,-1.5972,-1.5964,-1.5945,-1.5931,-1.5893,-1.5819,-1.5867,-1.5861,-1.5848,-1.5751,-1.5729,-1.5721,-1.5664,-1.5675,-1.5671,-1.5669,-1.5667,-1.5596,-1.5597,0,0,0,0,0,0,-1.6118,-1.6096,-1.5976,-1.5969,-1.6028,-1.5942,-1.5927,-1.5902,-1.5819,-1.5806,-1.5849,-1.5845,-1.5737,-1.5726,-1.5717,-1.5698,-1.567,-1.5666,-1.5664,-1.5596,-1.5597,-1.5597,0,0,0,0,0,0,-1.6121,-1.6108,-1.5981,-1.603,-1.6013,-1.594,-1.5913,-1.59,-1.5878,-1.5805,-1.5792,-1.584,-1.5736,-1.5723,-1.5688,-1.5693,-1.5665,-1.5661,-1.5595,-1.5596,-1.5597,-1.5661,0,0,0,0,0,0,-1.6126,-1.611,-1.6104,-1.6031,-1.601,-1.5954,-1.5913,-1.5898,-1.5871,-1.5865,-1.5793,-1.5781,-1.5734,-1.5694,-1.5684,-1.5686,-1.5657,-1.5594,-1.5595,-1.5597,-1.5658,-1.5664,-1.567,0,0,0,0,0,-1.6132,-1.6127,-1.6105,-1.6091,-1.6003,-1.5954,-1.5943,-1.5889,-1.5872,-1.5866,-1.582,-1.5783,-1.5695,-1.5692,-1.5679,-1.568,-1.5594,-1.5595,-1.5596,-1.5656,-1.5663,-1.5669,0,0,0,0,0,0,-1.6202,-1.6116,-1.609,-1.6061,-1.6016,-1.5941,-1.5932,-1.5898,-1.5857,-1.5852,-1.5788,-1.5772,-1.5744,-1.5709,-1.5707,-1.5666,-1.564,-1.5639,-1.5689,-1.5696,-1.5701,-1.571,-1.5654,0,0,0,0,0,-1.6215,-1.6183,-1.6109,-1.609,-1.6069,-1.6005,-1.5982,-1.5945,-1.5895,-1.5875,-1.5826,-1.5779,-1.574,-1.5716,-1.5677,-1.5654,-1.5637,-1.5649,-1.5654,-1.5659,-1.5659,-1.5644,-1.5648,-1.5602,-1.5602,-1.5602,0,0,-1.6239,-1.6188,-1.6172,-1.6103,-1.6064,-1.6032,-1.5989,-1.5957,-1.5933,-1.587,-1.5834,-1.5797,-1.574,-1.5711,-1.5696,-1.5681,-1.5668,-1.5661,-1.5666,-1.5662,-1.5646,-1.565,-1.5654,-1.5603,-1.5603,-1.5603,0,0,-1.6267,-1.6226,-1.6206,-1.6167,-1.6108,-1.6066,-1.6061,-1.5992,-1.5965,-1.5928,-1.588,-1.5851,-1.5786,-1.5748,-1.572,-1.5736,-1.57,-1.5725,-1.5753,-1.574,-1.5743,-1.5746,-1.5752,-1.5754,-1.5725,-1.5725,-1.5725,0,-1.6305,-1.6255,-1.62,-1.6171,-1.6142,-1.6085,-1.6064,-1.6029,-1.5961,-1.5942,-1.5927,-1.5845,-1.5802,-1.5764,-1.5768,-1.5747,-1.574,-1.5732,-1.5748,-1.575,-1.5752,-1.5756,-1.5758,-1.5728,-1.5728,-1.5728,-1.5727,0,-1.6305,-1.6271,-1.6262,-1.6197,-1.6168,-1.6144,-1.6084,-1.6061,-1.6027,-1.5987,-1.5951,-1.5898,-1.5847,-1.5836,-1.5802,-1.5793,-1.5785,-1.576,-1.5732,-1.576,-1.5763,-1.5764,-1.5733,-1.5732,-1.5731,-1.573,0,0,-1.6372,-1.6278,-1.6275,-1.6245,-1.6177,-1.615,-1.6124,-1.6074,-1.6056,-1.6011,-1.5987,-1.5934,-1.591,-1.5879,-1.584,-1.5829,-1.5845,-1.5804,-1.5802,-1.5813,-1.5831,-1.585,-1.5853,-1.5822,-1.5822,-1.5822,-1.5835,0,-1.6389,-1.6338,-1.6288,-1.6254,-1.6223,-1.6169,-1.6146,-1.6101,-1.6063,-1.6031,-1.5989,-1.5953,-1.5924,-1.5905,-1.5891,-1.5846,-1.5847,-1.5844,-1.5798,-1.5797,-1.5813,-1.5854,-1.5874,-1.5889,-1.5836,-1.5836,-1.5837,0,-1.6402,-1.636,-1.6324,-1.6259,-1.6244,-1.6224,-1.6175,-1.6145,-1.6094,-1.6067,-1.6033,-1.5993,-1.5963,-1.594,-1.5897,-1.5897,-1.5875,-1.585,-1.5849,-1.5842,-1.5818,-1.5847,-1.5893,-1.5895,-1.5838,-1.5838,-1.5838,0,-1.6454,-1.6389,-1.6358,-1.6335,-1.6258,-1.6246,-1.6213,-1.6162,-1.6136,-1.6093,-1.6076,-1.6031,-1.6006,-1.5972,-1.5921,-1.5909,-1.5883,-1.5856,-1.586,-1.5861,-1.5855,-1.5856,-1.5897,-1.5844,-1.5844,-1.5844,-1.5844,0,-1.6478,-1.6458,-1.6381,-1.6362,-1.6338,-1.6281,-1.6259,-1.6222,-1.6177,-1.615,-1.6101,-1.6078,-1.6012,-1.5981,-1.5941,-1.5911,-1.59,-1.5878,-1.5867,-1.5881,-1.5884,-1.5865,-1.5863,-1.5844,-1.5844,-1.5844,-1.5844,0,-1.6531,-1.6479,-1.6442,-1.6374,-1.6356,-1.6342,-1.6283,-1.6263,-1.6223,-1.619,-1.6179,-1.6116,-1.6077,-1.6023,-1.5966,-1.594,-1.5915,-1.5899,-1.5932,-1.5926,-1.5932,-1.5932,-1.5962,-1.5962,-1.591,-1.5911,-1.5911,0,-1.6549,-1.6533,-1.6463,-1.6441,-1.6411,-1.6377,-1.6351,-1.6294,-1.6269,-1.621,-1.6198,-1.6154,-1.6117,-1.6056,-1.6005,-1.5962,-1.5944,-1.5958,-1.5937,-1.5952,-1.5943,-1.5945,-1.5943,-1.5962,-1.5963,-1.5964,-1.5964,0,-1.6587,-1.6562,-1.6526,-1.6481,-1.645,-1.6412,-1.6371,-1.6357,-1.6292,-1.6266,-1.6225,-1.6196,-1.6139,-1.6097,-1.6048,-1.6014,-1.5979,-1.5972,-1.597,-1.5984,-1.6003,-1.5992,-1.5945,-1.5971,-1.597,-1.5969,-1.5969,-1.5969,-1.6623,-1.6606,-1.6554,-1.6515,-1.6479,-1.6442,-1.642,-1.6378,-1.6343,-1.6292,-1.6261,-1.6222,-1.6172,-1.6102,-1.6071,-1.6039,-1.6025,-1.6023,-1.6022,-1.6022,-1.6027,-1.601,-1.603,-1.603,-1.603,-1.6029,-1.6029,0,-1.6658,-1.6622,-1.6587,-1.6532,-1.6501,-1.6471,-1.6425,-1.6402,-1.6368,-1.6325,-1.6289,-1.6242,-1.6202,-1.6148,-1.6104,-1.6089,-1.6072,-1.6079,-1.6079,-1.6072,-1.6042,-1.6048,-1.6094,-1.6094,-1.6094,-1.6094,-1.6094,-1.6094,-1.6672,-1.6641,-1.6611,-1.6562,-1.6526,-1.6487,-1.6463,-1.643,-1.6395,-1.6345,-1.6311,-1.6277,-1.623,-1.6182,-1.6143,-1.6128,-1.6114,-1.6126,-1.6107,-1.608,-1.6074,-1.6068,-1.6073,-1.6124,-1.6124,-1.6139,-1.6139,-1.6139]},{"header":{"parameterUnit":"m.s-1","parameterCategory":1,"la1":30.2991,"la2":30.254,"lo1":-89.0895,"lo2":-89.0444,"dy":0.0017,"dx":0.0017,"nx":28,"ny":28,"refTime":"2023-08-27T09:00:00:Z","depth":0,"parameterNumber":3,"parameterNumberName":"V-component_of_WINDS"},"data":[0,0,0,0,0,0,0,0,0,0,0,0,0,0,0,0,0,0,0,0,0,0,0,0,0,0,0,0,0,0,0,0,0,0,0,0,0,0,0,0,0,0,0,0,0,0,0,0,0,0,0,0,0,0,0,0,0,0,4.8395,4.8395,0,4.8397,4.8397,4.8397,4.8361,4.836,4.8359,4.8358,4.8359,4.836,4.8361,0,0,0,0,0,0,0,0,0,0,0,0,0,4.8357,4.8358,4.8395,4.8395,4.8395,4.8397,4.8397,4.8397,4.8361,4.836,4.8358,4.8357,4.8359,4.836,4.8361,0,0,0,0,0,0,0,0,0,0,0,0,0,4.8368,4.8359,4.8395,4.8377,4.8375,4.8397,4.8397,4.8397,4.8361,4.836,4.8358,4.8357,4.8359,4.836,4.8361,4.84,0,0,4.8366,4.8366,0,0,0,0,0,0,0,0,4.8367,4.8369,4.8379,4.8378,4.8376,4.8377,4.8384,4.8398,4.8361,4.8366,4.8358,4.8356,4.8366,4.8367,4.8371,4.84,4.84,4.8366,4.8367,4.8367,4.8368,0,0,0,0,0,0,0,4.8367,4.8369,4.8395,4.838,4.8378,4.8368,4.8368,4.8387,4.8375,4.8366,4.8363,4.8364,4.8365,4.8369,4.837,4.84,4.8366,4.8367,4.8368,4.8369,4.846,4.8462,0,0,0,0,0,0,4.8369,4.8369,4.8395,4.8396,4.8368,4.837,4.837,4.8378,4.8374,4.8372,4.8365,4.8362,4.8368,4.8369,4.837,4.8415,4.8367,4.8369,4.837,4.8459,4.846,4.8462,0,0,0,0,0,0,4.8368,4.8371,4.8395,4.8381,4.8384,4.8372,4.8382,4.8379,4.8383,4.8374,4.8371,4.8372,4.8367,4.8368,4.8393,4.8414,4.8369,4.8371,4.8457,4.8459,4.8461,4.8504,0,0,0,0,0,0,4.8367,4.8371,4.8386,4.8382,4.8385,4.8418,4.8383,4.838,4.8386,4.8382,4.8379,4.8378,4.8366,4.8391,4.8394,4.8415,4.8372,4.8455,4.8458,4.8461,4.8501,4.8508,4.8513,0,0,0,0,0,4.8366,4.8398,4.8387,4.8391,4.8403,4.8419,4.8421,4.8407,4.8388,4.8402,4.8396,4.8378,4.8411,4.8394,4.8397,4.8419,4.8453,4.8457,4.846,4.8498,4.8506,4.8513,0,0,0,0,0,0,4.8405,4.8397,4.8385,4.8417,4.8419,4.8413,4.8431,4.8416,4.8423,4.8419,4.8401,4.8401,4.8428,4.8426,4.8406,4.8456,4.8429,4.8433,4.8456,4.8464,4.847,4.847,4.8373,0,0,0,0,0,4.8417,4.8431,4.8424,4.8453,4.8454,4.8443,4.8449,4.8438,4.844,4.844,4.8436,4.8438,4.8449,4.8456,4.8466,4.85,4.8499,4.8517,4.8523,4.8529,4.8533,4.855,4.8558,4.8474,4.8474,4.8474,0,0,4.8443,4.844,4.845,4.846,4.8461,4.8476,4.8444,4.8461,4.8472,4.8443,4.8465,4.8462,4.8463,4.8493,4.8505,4.8492,4.8556,4.8533,4.8537,4.8539,4.8555,4.8563,4.857,4.8476,4.8476,4.8475,0,0,4.8497,4.8497,4.852,4.8521,4.8522,4.8514,4.852,4.8517,4.8513,4.8536,4.8515,4.8527,4.8546,4.8547,4.8551,4.8605,4.8588,4.8608,4.8642,4.8659,4.8666,4.8672,4.8691,4.8698,4.8612,4.8612,4.8613,0,4.8528,4.855,4.8535,4.8553,4.8558,4.8533,4.8556,4.8558,4.8562,4.8566,4.855,4.8574,4.8572,4.8602,4.8615,4.8618,4.8624,4.8609,4.8666,4.8672,4.8677,4.8695,4.8702,4.8615,4.8615,4.8614,4.8614,0,4.8589,4.8604,4.8623,4.8628,4.8635,4.8656,4.8643,4.8652,4.864,4.8633,4.8656,4.8654,4.8662,4.8668,4.8657,4.8696,4.8687,4.867,4.8642,4.8688,4.8705,4.8711,4.8619,4.8618,4.8617,4.8616,0,0,4.8668,4.8663,4.8671,4.8672,4.8671,4.8683,4.8702,4.8711,4.8718,4.8722,4.8738,4.8754,4.8738,4.8741,4.873,4.8745,4.8788,4.8725,4.8725,4.8737,4.883,4.8844,4.8852,4.8777,4.8778,4.8779,4.883,0,4.872,4.8754,4.874,4.8775,4.8788,4.8764,4.8781,4.8782,4.8777,4.8787,4.8781,4.8793,4.877,4.8772,4.8786,4.878,4.8806,4.8776,4.8791,4.8792,4.8791,4.8861,4.8875,4.8924,4.8837,4.8838,4.8839,0,4.8786,4.8792,4.8829,4.8825,4.883,4.8846,4.8852,4.8862,4.8863,4.8858,4.8862,4.8846,4.8865,4.8838,4.8863,4.8842,4.8848,4.8845,4.8847,4.8848,4.8818,4.8864,4.8939,4.8947,4.8849,4.8848,4.8847,0,4.884,4.8857,4.8881,4.8883,4.888,4.8891,4.889,4.8889,4.8895,4.89,4.8904,4.8911,4.8915,4.8921,4.8909,4.889,4.8935,4.8907,4.8931,4.8932,4.8942,4.8942,4.902,4.8945,4.8945,4.8945,4.8945,0,4.89,4.8923,4.8905,4.892,4.8945,4.8928,4.8953,4.8949,4.8949,4.8962,4.8941,4.8954,4.8936,4.8947,4.8937,4.8959,4.8961,4.8957,4.8955,4.8959,4.896,4.8963,4.8959,4.8947,4.8947,4.8946,4.8946,0,4.8965,4.8954,4.8978,4.8972,4.8971,4.899,4.8985,4.8998,4.8991,4.9008,4.901,4.8999,4.9011,4.8998,4.9009,4.9002,4.9032,4.9024,4.9032,4.903,4.9055,4.9053,4.9138,4.9148,4.9067,4.9068,4.9069,0,4.9004,4.9021,4.9017,4.9024,4.9025,4.9037,4.9043,4.9027,4.9034,4.9035,4.9048,4.9058,4.9065,4.9085,4.9078,4.9086,4.9078,4.9107,4.9079,4.9083,4.9078,4.9078,4.9079,4.9113,4.9114,4.9115,4.9115,0,4.9074,4.9068,4.9077,4.9085,4.9092,4.9097,4.9101,4.9108,4.9091,4.91,4.9112,4.9118,4.9128,4.9139,4.9145,4.9143,4.9127,4.9124,4.913,4.9135,4.9139,4.9138,4.9048,4.9122,4.9122,4.9121,4.9121,4.912,4.9127,4.9141,4.9141,4.9152,4.9152,4.9156,4.9168,4.9162,4.9172,4.918,4.917,4.9184,4.9184,4.919,4.919,4.9201,4.9189,4.9198,4.92,4.9202,4.9206,4.9138,4.9202,4.9202,4.9202,4.9202,4.9201,0,4.9197,4.9195,4.9205,4.9211,4.9219,4.9203,4.9206,4.9214,4.9227,4.9228,4.9235,4.9249,4.9259,4.9252,4.926,4.927,4.9263,4.9273,4.9272,4.9272,4.9217,4.9211,4.9278,4.9278,4.9278,4.9278,4.9278,4.9278,4.9234,4.9257,4.925,4.9273,4.9271,4.9285,4.9288,4.9291,4.9292,4.9308,4.9316,4.9311,4.9309,4.9317,4.9325,4.9323,4.9327,4.9339,4.9335,4.9283,4.9276,4.9268,4.9263,4.934,4.934,4.9389,4.9389,4.939]}]]